Probability
19 19 16 19 16 16 13 16 13 13 13 16 13 19 16 23 10 13 19 0 0 0 0 0 0 0 0 3 3 3 3 3 3 0 0 0 3 3
19 16 16 16 16 16 19 13 13 6 10 13 26 13 26 6 6 19 23 0 0 0 0 0 0 0 0 0 0 0 0 0 0 0 0 0 0 0
13 10 16 23 19 16 16 13 10 6 6 13 19 19 26 29 19 19 13 16 6 0 0 0 0 0 0 0 0 0 0 0 0 0 0 0 0 0
10 13 13 10 16 16 19 13 13 13 10 16 19 23 23 26 29 26 10 0 3 0 0 0 0 0 0 0 0 0 0 0 0 0 0 0 0 0
13 10 13 10 10 13 16 19 16 13 13 13 16 19 10 16 16 23 10 16 0 0 0 0 0 0 0 0 0 0 0 0 0 0 0 0 0 0
16 13 13 13 10 10 10 10 13 13 13 6 16 13 10 10 13 16 19 19 13 3 0 0 0 0 0 0 0 0 0 0 0 0 0 0 0 0
19 19 16 6 6 6 3 6 3 13 13 10 13 13 10 13 13 13 16 19 16 16 13 6 6 6 3 0 0 0 0 0 0 0 0 0 0 0
13 16 10 6 0 0 0 0 0 3 13 10 10 10 13 13 13 10 13 13 13 13 13 6 6 6 6 6 0 0 0 0 0 0 0 0 0 0
16 19 6 6 3 6 0 0 0 0 0 6 13 10 10 10 10 10 10 6 10 10 10 3 6 3 0 0 0 0 0 0 0 0 0 0 0 0
13 16 13 10 6 6 3 3 3 3 0 0 6 10 6 10 10 10 10 6 3 10 3 6 10 3 0 0 0 0 0 0 0 0 0 0 0 0
10 10 6 6 6 0 0 10 3 6 0 0 0 0 0 0 0 6 6 6 6 3 6 3 3 3 3 3 0 0 0 0 0 0 0 0 0 0
6 10 3 3 3 0 3 10 10 10 3 3 0 0 0 0 0 3 6 6 3 0 3 3 3 3 0 0 0 0 0 0 0 0 0 0 0 0
3 6 10 0 0 0 0 3 0 3 10 3 6 6 3 6 6 3 3 6 3 0 0 3 3 3 3 3 3 0 0 0 0 0 0 0 0 0
6 6 6 0 0 0 0 0 0 0 3 3 3 0 0 0 0 0 3 6 10 3 6 6 3 3 3 0 0 0 0 0 0 0 0 0 0 0
3 0 0 0 0 0 0 0 0 0 3 3 3 0 0 0 0 6 3 3 3 0 3 3 6 6 3 0 0 0 0 0 0 0 3 0 0 0
0 0 0 0 0 0 0 0 0 0 0 0 6 3 3 3 0 0 0 6 3 3 3 6 6 6 0 0 3 0 0 0 0 0 3 3 0 0
3 6 3 3 3 0 0 0 0 0 0 0 0 3 3 3 0 0 6 3 0 0 0 3 0 6 3 3 0 0 0 0 0 0 3 0 0 3
0 3 3 0 0 0 0 0 0 0 0 0 0 0 0 3 0 0 0 3 3 0 0 0 0 0 0 0 0 0 0 0 0 3 3 0 0 0
3 3 0 0 0 0 0 0 0 0 0 0 0 0 0 0 0 0 0 0 0 0 0 0 0 0 0 0 0 0 0 3 3 0 0 3 3 0
0 0 0 0 0 0 0 0 0 0 0 0 0 0 0 0 0 0 0 0 0 0 0 0 0 0 0 0 0 0 0 0 3 0 0 0 0 0
0 0 0 0 0 0 0 0 0 0 0 0 0 0 0 0 0 0 0 0 0 0 0 0 0 0 0 0 0 0 0 0 0 6 0 0 0 0
0 0 0 0 0 0 0 0 0 0 0 0 0 0 0 0 0 0 0 0 0 0 0 0 0 0 0 0 0 0 0 0 0 0 0 0 0 0
0 0 0 0 0 0 0 0 0 0 0 0 0 0 0 0 0 0 0 0 0 0 0 0 0 0 0 0 0 0 0 0 0 0 0 0 0 0
Height
5814 5813 5813 5812 5811 5811 5810 5809 5809 5809 5809 5808 5808 5808 5808 5808 5808 5808 5808 5808 5807 5808 5808 5808 5808 5809 5809 5809 5810 5810 5810 5810 5811 5811 5811 5811 5812 5812
5808 5807 5807 5806 5806 5805 5804 5803 5803 5803 5802 5802 5802 5802 5802 5802 5801 5801 5801 5801 5801 5801 5801 5801 5802 5802 5802 5802 5803 5803 5803 5803 5804 5804 5804 5804 5804 5805
5802 5802 5801 5800 5799 5798 5798 5797 5796 5796 5796 5795 5795 5795 5795 5795 5794 5794 5793 5793 5793 5794 5794 5794 5794 5795 5795 5795 5795 5796 5796 5796 5796 5796 5796 5796 5797 5797
5797 5796 5795 5794 5793 5792 5791 5790 5789 5789 5789 5788 5788 5788 5788 5788 5787 5787 5786 5786 5786 5786 5787 5787 5787 5787 5787 5788 5788 5788 5789 5788 5788 5788 5788 5788 5789 5789
5791 5790 5789 5787 5786 5785 5783 5783 5782 5782 5781 5781 5781 5781 5781 5780 5780 5780 5779 5779 5779 5779 5779 5779 5779 5780 5780 5780 5781 5781 5781 5780 5780 5780 5779 5779 5780 5780
5785 5784 5782 5780 5779 5777 5776 5775 5774 5774 5773 5773 5773 5773 5773 5773 5772 5772 5772 5772 5771 5771 5771 5771 5771 5771 5772 5772 5772 5772 5772 5772 5771 5771 5771 5771 5771 5771
5779 5777 5776 5774 5772 5770 5769 5768 5766 5766 5765 5765 5765 5765 5765 5765 5765 5764 5764 5764 5763 5763 5763 5763 5763 5764 5763 5763 5763 5763 5763 5763 5763 5762 5762 5762 5762 5762
5773 5771 5769 5767 5765 5763 5762 5761 5760 5759 5758 5758 5758 5758 5758 5758 5757 5757 5756 5756 5756 5756 5756 5756 5756 5756 5756 5756 5755 5755 5755 5755 5754 5754 5754 5754 5754 5754
5767 5765 5762 5760 5758 5756 5754 5753 5753 5752 5752 5752 5752 5751 5751 5751 5750 5749 5749 5748 5749 5749 5748 5749 5748 5748 5748 5748 5747 5747 5747 5747 5747 5746 5746 5746 5745 5745
5760 5758 5756 5754 5752 5750 5748 5747 5746 5746 5745 5745 5745 5745 5745 5744 5743 5743 5742 5742 5742 5742 5742 5742 5742 5741 5741 5741 5740 5740 5740 5739 5739 5739 5738 5738 5738 5737
5753 5752 5750 5748 5746 5744 5742 5741 5740 5739 5739 5738 5738 5738 5738 5738 5737 5737 5736 5736 5736 5736 5736 5736 5736 5735 5734 5734 5733 5733 5733 5733 5732 5731 5731 5730 5730 5729
5747 5745 5743 5742 5740 5738 5736 5735 5734 5734 5733 5732 5732 5732 5732 5732 5731 5731 5730 5730 5730 5730 5730 5729 5729 5728 5728 5727 5726 5726 5725 5725 5725 5724 5723 5722 5721 5720
5741 5739 5737 5736 5734 5733 5731 5730 5729 5728 5727 5727 5726 5726 5726 5725 5725 5724 5724 5724 5724 5724 5723 5723 5722 5722 5721 5721 5720 5719 5718 5718 5717 5717 5716 5715 5714 5713
5734 5733 5731 5730 5729 5727 5726 5725 5723 5722 5722 5721 5721 5720 5720 5719 5719 5719 5718 5718 5718 5718 5717 5717 5716 5715 5714 5714 5713 5712 5711 5710 5710 5709 5708 5707 5706 5705
5728 5727 5726 5724 5723 5722 5721 5720 5718 5717 5716 5716 5715 5715 5714 5714 5713 5713 5712 5712 5712 5711 5711 5710 5710 5709 5708 5707 5706 5706 5705 5704 5702 5701 5700 5700 5698 5697
5722 5721 5720 5719 5717 5717 5715 5714 5713 5712 5711 5710 5710 5709 5708 5708 5707 5707 5706 5706 5705 5705 5704 5704 5703 5702 5701 5700 5700 5699 5698 5697 5696 5694 5693 5692 5690 5689
5715 5715 5714 5713 5712 5711 5710 5709 5708 5707 5706 5705 5705 5704 5703 5702 5701 5701 5700 5700 5699 5699 5698 5698 5697 5696 5695 5694 5693 5692 5690 5689 5688 5687 5685 5684 5682 5681
5709 5709 5708 5707 5707 5706 5705 5704 5703 5702 5701 5700 5699 5698 5697 5697 5696 5695 5694 5694 5693 5693 5692 5691 5691 5689 5689 5687 5686 5684 5683 5682 5681 5679 5677 5676 5675 5673
5704 5703 5703 5702 5701 5701 5700 5699 5698 5697 5696 5695 5694 5693 5692 5691 5690 5689 5688 5688 5687 5687 5686 5685 5684 5683 5682 5681 5679 5677 5676 5675 5673 5671 5670 5668 5667 5665
5698 5697 5697 5696 5696 5695 5694 5694 5693 5692 5691 5690 5689 5688 5687 5686 5685 5683 5682 5682 5681 5680 5680 5679 5678 5676 5675 5674 5672 5671 5669 5667 5666 5664 5662 5660 5659 5657
5691 5691 5690 5690 5689 5689 5688 5688 5687 5687 5686 5684 5683 5682 5681 5680 5679 5678 5676 5676 5675 5674 5673 5672 5671 5670 5668 5667 5665 5664 5662 5660 5658 5656 5655 5653 5651 5649
5685 5685 5684 5684 5683 5682 5682 5681 5681 5680 5679 5678 5677 5676 5675 5674 5672 5671 5670 5670 5669 5668 5667 5666 5665 5663 5662 5660 5658 5656 5654 5652 5650 5648 5647 5645 5643 5641
5678 5678 5677 5677 5676 5676 5675 5674 5674 5673 5672 5671 5670 5669 5668 5667 5666 5665 5664 5663 5663 5662 5660 5659 5658 5656 5654 5652 5651 5649 5647 5645 5642 5641 5639 5637 5635 5633
Wind_Speed
20 20 20 21 22 22 22 22 22 21 22 22 22 23 23 23 23 24 24 24 23 23 24 24 24 24 24 25 26 26 26 26 27 26 26 26 25 25
20 21 22 22 23 22 22 22 23 23 23 23 23 24 24 24 24 25 25 25 24 24 24 25 25 25 25 26 26 26 26 26 26 27 27 27 27 27
20 21 22 23 23 23 24 24 24 24 24 24 25 25 24 25 25 25 25 25 25 25 25 26 26 27 27 27 26 26 26 27 27 27 28 27 27 28
21 22 23 24 23 24 24 24 25 25 25 25 25 26 26 26 26 26 25 25 25 26 27 27 27 27 27 27 27 26 27 27 27 27 28 29 29 29
21 22 23 24 23 24 24 25 25 25 26 26 26 26 26 26 26 26 26 26 26 27 27 28 28 28 28 28 28 29 29 29 28 28 29 29 29 29
22 22 23 23 23 24 24 24 25 25 25 25 26 26 27 27 27 27 27 27 28 28 28 27 27 27 27 27 28 29 30 30 30 29 30 30 29 29
23 23 22 23 23 24 24 24 24 25 25 25 25 25 26 26 26 26 27 27 28 27 27 26 26 27 27 27 27 27 28 29 29 29 29 28 29 30
22 22 23 23 23 23 23 23 23 23 24 24 24 24 24 25 25 25 25 26 26 26 26 25 26 26 25 25 25 26 27 27 27 28 27 27 28 30
21 22 23 23 23 23 23 23 23 23 23 23 23 23 23 22 23 23 23 23 23 23 24 24 24 25 25 24 24 25 25 26 26 26 28 28 28 29
22 22 22 22 22 22 22 22 21 21 21 22 22 22 21 21 21 22 22 22 21 21 22 22 23 24 25 24 24 24 24 25 25 26 27 27 28 29
23 23 22 22 22 22 22 21 21 21 22 22 22 21 20 20 20 20 21 21 21 21 21 22 22 23 24 25 24 24 24 24 25 25 26 27 28 29
22 22 22 21 21 20 20 21 21 21 21 21 21 21 20 20 20 20 20 20 21 21 22 22 22 22 22 23 23 23 23 24 24 25 25 26 27 28
22 21 21 21 21 20 19 20 20 20 20 20 20 20 20 21 20 20 20 20 20 21 21 21 22 22 22 22 22 23 23 23 23 24 25 26 27 27
21 21 20 20 20 19 19 19 19 19 19 19 19 19 20 20 20 19 19 20 20 21 21 21 21 22 22 22 22 22 22 22 23 23 24 25 26 26
21 21 20 20 20 18 18 18 18 18 18 19 19 19 19 20 20 19 19 19 19 20 20 20 21 21 22 22 22 22 22 22 23 24 25 25 25 26
20 20 19 19 19 18 18 18 17 17 17 18 18 19 19 19 19 19 19 19 19 20 20 21 21 21 22 22 23 23 24 24 24 25 25 26 26 25
19 19 19 19 18 18 18 18 18 17 18 18 18 18 19 19 20 19 19 19 19 20 20 21 22 22 22 22 22 23 24 24 25 26 25 25 26 26
19 19 19 19 18 18 18 18 17 17 17 17 17 18 18 18 18 18 18 18 19 20 20 21 21 22 22 23 23 23 23 24 25 25 25 25 25 26
20 20 20 19 19 18 18 17 17 17 17 17 17 18 18 18 18 18 17 18 19 20 20 21 21 22 22 22 23 23 23 24 24 25 25 25 25 25
20 20 20 20 19 19 19 18 18 18 18 18 18 19 19 19 19 19 18 18 19 19 20 21 21 22 22 22 22 23 24 24 25 25 24 25 25 25
20 20 20 20 20 20 19 19 19 19 20 20 20 20 20 20 20 19 18 18 18 19 20 21 21 22 22 22 23 23 24 25 25 25 25 25 25 26
20 20 20 20 20 20 20 21 21 20 21 21 21 20 20 20 20 20 19 19 20 20 21 21 22 23 23 23 24 24 24 25 25 25 25 25 26 26
20 21 21 21 21 21 21 21 22 22 22 22 21 21 21 21 20 20 20 20 21 21 21 22 22 23 24 24 25 25 26 25 26 25 25 25 25 26
Wind_Direction
273 271 270 271 273 277 277 276 274 272 271 270 268 266 267 267 266 267 269 270 270 268 266 265 265 265 263 262 262 264 264 265 266 266 264 263 263 261
273 272 272 272 274 276 275 274 272 273 270 268 268 267 266 266 266 267 267 269 269 268 268 267 266 264 263 264 263 264 264 265 266 265 264 263 263 262
274 275 275 275 276 276 275 273 272 271 270 268 266 266 267 267 268 268 267 267 268 267 268 267 266 265 264 264 265 266 267 266 266 266 265 264 263 262
277 277 278 279 279 276 275 274 272 270 270 268 267 266 267 268 268 268 268 269 268 268 268 268 268 266 265 265 267 267 267 268 268 268 267 266 265 263
278 279 281 282 280 278 277 275 272 269 269 268 267 267 268 268 268 269 270 270 270 270 269 268 268 267 266 265 266 267 268 269 269 270 268 268 266 264
281 282 284 283 282 278 278 277 273 270 270 269 268 267 266 267 268 269 270 271 270 271 270 269 268 267 267 267 267 267 268 269 268 268 268 268 266 265
282 285 285 286 284 281 277 276 273 271 271 272 270 269 268 267 268 271 272 271 271 271 269 269 268 268 268 268 269 269 269 268 268 268 268 268 266 266
285 286 286 286 285 282 278 276 275 273 273 272 271 271 271 271 269 270 271 270 269 269 268 267 269 269 268 269 270 270 269 269 269 269 269 270 269 268
285 287 287 286 285 284 280 278 276 275 273 271 270 271 273 274 270 271 271 272 270 269 267 268 270 271 270 271 270 271 271 269 268 271 272 271 271 271
286 287 287 287 287 284 282 281 279 278 275 271 270 272 272 273 273 271 269 269 267 268 269 271 272 273 272 271 271 272 272 270 270 272 272 271 270 271
286 286 286 287 287 285 281 280 280 277 275 273 271 271 271 272 274 274 271 268 268 269 272 273 274 274 274 273 273 273 272 272 272 272 273 273 273 271
285 284 284 286 286 284 283 281 280 278 276 274 274 273 274 276 277 276 274 271 270 271 273 273 274 276 275 274 275 275 274 275 274 273 274 276 276 275
284 285 286 286 286 285 284 284 283 280 276 274 275 275 277 279 278 277 275 272 272 273 274 274 275 276 278 277 276 276 276 276 275 275 275 275 277 277
284 284 285 284 285 285 285 285 284 280 276 275 276 277 279 280 277 276 275 274 275 276 275 276 277 278 279 278 277 277 278 278 278 278 277 278 278 278
284 282 282 282 281 284 286 285 286 284 279 276 276 278 280 280 278 275 273 272 276 278 277 277 279 280 279 278 277 277 279 281 282 283 282 282 281 278
284 282 282 281 280 281 284 284 284 284 281 279 278 278 279 279 278 277 277 275 276 277 278 278 279 279 279 280 280 278 279 280 283 284 283 284 285 283
281 283 283 284 282 280 282 284 283 282 283 281 278 278 280 280 279 279 280 277 277 278 278 279 280 281 282 283 283 281 281 281 282 283 284 284 284 283
278 281 283 283 283 282 281 282 282 282 283 281 282 281 281 281 281 282 284 282 281 280 279 280 282 284 285 285 284 283 282 284 285 285 284 284 284 284
276 277 279 280 282 281 281 282 282 282 283 284 283 283 284 283 285 285 283 281 281 282 282 283 284 286 287 287 287 287 286 286 287 287 286 285 284 284
275 276 276 277 278 278 278 281 282 282 283 284 284 284 284 286 287 287 286 283 282 284 284 285 286 286 288 288 288 287 287 287 287 288 288 288 284 283
275 275 275 276 277 277 277 278 279 280 282 283 284 284 285 286 286 287 287 284 283 283 285 286 286 286 286 287 288 288 287 287 288 288 289 290 288 285
275 275 276 277 277 277 278 277 276 278 281 282 283 283 284 285 285 285 284 283 283 285 287 287 286 287 288 288 288 288 288 289 289 289 289 289 290 288
275 275 276 278 277 275 276 277 278 279 281 281 280 280 281 283 285 285 283 283 284 286 287 288 289 289 289 288 289 290 290 291 291 291 291 291 291 291